#timestamp,LO_Frequency,Hit 
1504972815.2,286047002.7,N
1504972835.0,286047000.8,N
1504972835.9,286047000.8,N
1504972855.8,286046999.2,N
1504972875.6,286046999.1,N
1504972895.4,286046997.0,N
1504972915.3,286046996.0,N
1504972935.1,286046991.6,N
1504972955.8,286046988.0,N
1504972975.7,286046982.9,P
1504972995.5,286046984.8,N
1504973015.3,286046978.9,P
1504973035.2,286046980.1,P
1504973055.0,286046994.5,N
1504973055.9,286046994.5,N
1504973075.7,286046990.5,N
1504973095.6,286046988.7,N
1504973115.4,286046989.8,N
1504973135.2,286046989.2,N
1504973155.1,286046987.5,N
1504973156.0,286046987.5,N
1504973175.8,286046988.4,N
1504973195.6,286046982.1,P
1504973215.5,286046992.8,N
1504973235.3,286046994.1,N
1504973255.1,286046993.9,N
1504973275.9,286046992.8,N
1504973295.7,286046989.1,N
1504973315.5,286046987.0,P
1504973335.4,286046998.5,N
1504973355.2,286046995.0,N
1504973375.0,286046997.9,N
1504973375.9,286046997.9,N
1504973395.8,286046992.6,N
1504973415.6,286046993.0,N
1504973435.4,286046992.5,N
1504973455.3,286046988.9,P
1504973475.1,286046997.8,N
1504973495.8,286046997.0,N
1504973515.7,286047001.1,N
1504973535.5,286046998.2,N
1504973555.3,286046995.6,N
1504973575.2,286046991.9,N
1504973595.9,286046990.7,N
1504973615.7,286046993.0,N
1504973635.6,286046993.3,N
1504973655.4,286046996.6,N
1504973675.2,286046994.8,N
1504973695.1,286046994.2,N
1504973696.0,286046994.2,N
1504973715.8,286046996.3,N
1504973735.6,286046995.8,N
1504973755.5,286046995.9,N
1504973775.3,286046993.0,N
1504973795.1,286046995.0,N
1504973815.8,286046997.7,N
1504973835.7,286047002.1,N
1504973855.5,286047004.2,N
1504973875.3,286047001.3,N
1504973895.2,286046999.9,N
1504973915.9,286047000.3,N
1504973935.7,286047004.0,N
1504973955.6,286047005.7,N
1504973975.4,286047008.8,N
1504973995.2,286047009.1,N
1504974015.1,286047009.7,N
1504974016.0,286047009.7,N
1504974035.8,286047012.3,N
1504974055.6,286047009.6,N
1504974075.5,286047012.3,N
1504974095.3,286047010.4,N
1504974115.1,286047007.1,N
1504974135.9,286047003.3,N
1504974155.7,286047003.8,N
1504974175.5,286047003.3,N
1504974195.3,286047003.1,N
1504974215.2,286047004.7,N
1504974235.0,286047005.5,N
1504974235.9,286047005.5,N
1504974255.7,286047003.4,N
1504974275.6,286047006.0,N
1504974295.4,286047003.4,N
1504974315.2,286047001.6,N
1504974335.1,286047001.3,N
1504974336.0,286047001.3,N
1504974355.8,286047000.5,N
1504974375.6,286046998.1,N
1504974395.5,286047002.5,N
1504974415.3,286047001.3,N
1504974435.1,286047005.6,N
1504974455.9,286047001.9,N
1504974475.7,286047000.2,N
1504974495.5,286047002.7,N
1504974515.4,286047000.3,N
1504974535.2,286047006.2,N
1504974555.0,286047009.6,N
1504974555.9,286047009.6,N
1504974575.8,286047007.7,N
1504974595.6,286047008.5,N
1504974615.4,286047010.6,P
1504974635.3,286047004.9,N
1504974655.1,286047003.2,N
1504974656.0,286047003.2,N
1504974675.8,286047005.7,N
1504974695.7,286047003.4,N
1504974715.5,286047008.8,P
1504974735.3,286047003.0,N
1504974755.2,286047007.1,N
1504974775.9,286047006.6,P
1504974795.7,286047000.4,N
1504974815.6,286047002.6,N
1504974835.4,286047001.9,N
1504974855.2,286047003.8,N
1504974875.1,286047002.8,N
1504974876.0,286047002.8,N
1504974895.8,286047003.2,N
1504974915.6,286047003.4,N
1504974935.5,286047003.9,N
1504974955.3,286047002.6,N
1504974975.1,286047001.6,N
1504974995.9,286047005.8,P
1504975015.7,286047002.5,N
1504975035.5,286047002.0,N
1504975055.4,286047002.9,N
1504975075.2,286047004.4,P
1504975095.0,286046998.7,N
1504975095.9,286046998.7,N
1504975115.8,286047000.1,N
1504975135.6,286047000.2,N
1504975155.4,286047000.7,N
1504975175.3,286047003.9,N
1504975195.1,286047003.4,N
1504975215.8,286047004.4,N
1504975235.7,286046999.8,N
1504975255.5,286047004.2,N
1504975275.3,286047003.3,N
1504975295.2,286047004.7,N
1504975315.9,286047003.4,N
1504975335.7,286047004.4,N
1504975355.5,286047005.6,N
1504975375.4,286047004.5,N
1504975395.2,286047010.5,P
1504975415.1,286047007.1,N
1504975416.0,286047007.1,N
1504975435.8,286047005.9,N
1504975455.6,286047003.7,N
1504975475.4,286047005.5,N
1504975495.3,286047001.6,N
1504975515.1,286047003.9,N
1504975535.9,286047007.9,P
1504975555.7,286047003.9,P
1504975575.5,286047000.4,N
1504975595.3,286046998.2,N
1504975615.2,286046996.5,N
1504975635.0,286046992.4,N
1504975635.9,286046992.4,N
1504975655.7,286046990.0,N
1504975675.6,286046989.5,N
1504975695.4,286046990.9,N
1504975715.2,286046989.6,N
1504975735.1,286046987.7,N
1504975736.0,286046987.7,N
1504975755.8,286046989.3,N
1504975775.6,286046992.7,N
1504975795.5,286046993.2,N
1504975815.3,286046991.6,N
1504975835.1,286046991.1,N
1504975855.9,286046989.7,N
1504975875.7,286046987.9,N
1504975895.5,286046986.5,N
1504975915.3,286046986.5,N
1504975935.2,286046981.7,P
1504975955.0,286046985.4,N
1504975955.9,286046985.4,P
1504975975.8,286046986.7,P
1504975995.6,286046999.9,N
1504976015.4,286047000.1,N
1504976035.3,286047000.5,N
1504976055.1,286046998.4,N
1504976056.0,286046998.4,N
1504976075.8,286046998.1,N
1504976095.7,286047001.1,N
1504976115.5,286046999.3,N
1504976135.3,286046998.6,N
1504976155.2,286046998.8,N
1504976175.9,286046996.5,N
1504976195.7,286046997.1,N
1504976215.6,286046999.1,N
1504976235.4,286046998.9,N
1504976255.2,286046999.2,N
1504976275.0,286047000.8,N
1504976275.9,286047000.8,N
1504976295.8,286047000.9,N
1504976315.6,286046998.6,N
1504976335.4,286046998.7,N
1504976355.3,286046997.7,N
1504976375.1,286046995.8,N
1504976395.8,286046992.8,N
